TimeMST,TemperatureF,Dew PointF,Humidity,Sea Level PressureIn,VisibilityMPH,Wind Direction,Wind SpeedMPH,Gust SpeedMPH,PrecipitationIn,Events,Conditions,WindDirDegrees,DateUTC
12:55 AM,33.1,26.1,75,30.04,10.0,Calm,Calm,-,N/A,,Clear,0,2012-11-07 07:55:00
1:55 AM,34.0,26.1,73,30.02,10.0,South,5.8,-,N/A,,Clear,180,2012-11-07 08:55:00
2:55 AM,33.1,26.1,75,30.02,10.0,Calm,Calm,-,N/A,,Clear,0,2012-11-07 09:55:00
3:55 AM,32.0,25.0,75,30.00,10.0,Calm,Calm,-,N/A,,Clear,0,2012-11-07 10:55:00
4:55 AM,28.9,23.0,78,30.03,10.0,NNW,4.6,-,N/A,,Clear,330,2012-11-07 11:55:00
5:55 AM,30.9,25.0,79,30.03,10.0,Calm,Calm,-,N/A,,Clear,0,2012-11-07 12:55:00
6:55 AM,28.9,24.1,82,30.03,10.0,Calm,Calm,-,N/A,,Partly Cloudy,0,2012-11-07 13:55:00
7:55 AM,32.0,26.1,79,30.01,10.0,Calm,Calm,-,N/A,,Mostly Cloudy,0,2012-11-07 14:55:00
8:55 AM,35.1,27.0,72,30.01,10.0,Calm,Calm,-,N/A,,Overcast,0,2012-11-07 15:55:00
9:55 AM,37.0,30.0,76,30.00,10.0,Calm,Calm,-,N/A,,Partly Cloudy,0,2012-11-07 16:55:00
10:55 AM,39.0,28.9,67,29.96,10.0,Calm,Calm,-,N/A,,Clear,0,2012-11-07 17:55:00
11:55 AM,48.0,30.9,52,29.89,10.0,Calm,Calm,-,N/A,,Clear,0,2012-11-07 18:55:00
12:55 PM,63.0,30.0,29,29.81,4.0,WSW,13.8,20.7,N/A,,Haze,250,2012-11-07 19:55:00
1:55 PM,61.0,32.0,34,29.81,10.0,West,9.2,16.1,N/A,,Mostly Cloudy,270,2012-11-07 20:55:00
2:55 PM,59.0,32.0,36,29.83,10.0,West,8.1,-,N/A,,Clear,280,2012-11-07 21:55:00
3:55 PM,57.0,30.9,37,29.85,10.0,West,15.0,21.9,N/A,,Partly Cloudy,280,2012-11-07 22:55:00
4:55 PM,54.0,30.9,41,29.87,10.0,East,4.6,-,N/A,,Clear,100,2012-11-07 23:55:00
5:55 PM,54.0,30.0,40,29.87,10.0,SW,8.1,16.1,N/A,,Clear,230,2012-11-08 00:55:00
6:55 PM,46.0,34.0,63,29.91,10.0,Variable,3.5,-,N/A,,Mostly Cloudy,0,2012-11-08 01:55:00
7:55 PM,46.9,32.0,56,29.89,10.0,South,3.5,-,N/A,,Overcast,180,2012-11-08 02:55:00
8:55 PM,46.9,30.9,54,29.87,10.0,Calm,Calm,-,N/A,,Mostly Cloudy,0,2012-11-08 03:55:00
9:55 PM,46.9,30.9,54,29.86,10.0,Calm,Calm,-,N/A,,Overcast,0,2012-11-08 04:55:00
10:55 PM,45.0,30.0,56,29.85,10.0,SSW,4.6,-,N/A,,Overcast,210,2012-11-08 05:55:00
11:55 PM,43.0,30.0,60,29.80,10.0,Calm,Calm,-,0.00,,Overcast,0,2012-11-08 06:55:00